Location: Dötzum
(52.0808°N, 9.8063°E)
Time: 03:58:00
(UTC+00:00)

USA 306 - Pass Details

Date: 27 May 2022
Orbit: 545 x 556 km, 54.0° (Epoch: 20 June)

Event Time Altitude Azimuth Distance (km) Brightness Sun altitude
Exits shadow 01:38:03 - 255° (WSW) 2,044 5.3 -10.5°
Reaches altitude 10° 01:38:34 10° 256° (WSW) 1,837 5.1 -10.5°
Maximum altitude 01:42:46 83° 344° (NNW) 567 2.9 -10.1°
Drops below altitude 10° 01:46:59 10° 73° (ENE) 1,851 6.3 -9.8°
Sets 01:49:14 0° 74° (ENE) 2,750 7.3 -9.6°
